White Plains, CT

1:01 AM EST on December 06, 2019 (GMT -0500)
Westchester County

Weather History for KHPN - November, 2019

Change the Weather History Date:

Saturday, November 16, 2019

  Actual Average Record
Temperature  
Mean Temperature 34 °F -  
Max Temperature 39 °F 48 °F 69 °F (1990)
Min Temperature 27 °F 34 °F 19 °F (1996)
Degree Days  
Heating Degree Days 32    
Moisture  
Dew Point 3 °F    
Average Humidity 33    
Maximum Humidity 64    
Minimum Humidity 10    
Precipitation  
Precipitation 0.00 in - - ()
Sea Level Pressure  
Sea Level Pressure 30.41 in    
Wind  
Wind Speed 8 mph ()    
Max Wind Speed 16 mph    
Max Gust Speed 29 mph    
Visibility 10.0 miles    
Events      
Averages and records for this station are not official NWS values.
T = Trace of Precipitation, MM = Missing Value Source: Averaged Metar Reports

Daily Weather History Graph

Daily Weather History Graph

Search for Another Location

Airport or City:

Astronomy

Nov. 16, 2019 Rise Set
Actual Time 6:43 AM EST 4:35 PM EST
Civil Twilight 6:13 AM EST 5:04 PM EST
Nautical Twilight 5:40 AM EST 5:38 PM EST
Astronomical Twilight 5:07 AM EST 6:10 PM EST
Moon 8:04 PM EST (11/16) 10:35 AM EST (11/16)
Length of Visible Light 10h 51m
Length of Day
9h 51m
Waning Gibbous, 82% of the Moon is Illuminated
Nov 16
Waning Gibbous
Nov 19
Last Quarter
Nov 26
New
Dec 4
First Quarter
Dec 12
Full

Hourly Weather History & Observations

Time (EST) Temp. Windchill Dew Point Humidity Pressure Visibility Wind Dir Wind Speed Gust Speed Precip Events Conditions
12:56 AM 36.0 °F 29.0 °F 24.1 °F 62% 30.23 in 10.0 mi NNW 9.2 mph - N/A   Clear
1:56 AM 34.0 °F - 23.0 °F 64% 30.26 in 10.0 mi Calm Calm - N/A   Clear
2:56 AM 35.1 °F 27.9 °F 23.0 °F 61% 30.27 in 10.0 mi North 9.2 mph - N/A   Scattered Clouds
3:56 AM 35.1 °F 25.9 °F 18.0 °F 50% 30.30 in 10.0 mi NNE 13.8 mph 28.8 mph N/A   Partly Cloudy
4:56 AM 32.0 °F 23.6 °F 10.9 °F 42% 30.34 in 10.0 mi North 10.4 mph 24.2 mph N/A   Clear
5:56 AM 30.0 °F 20.0 °F 7.0 °F 38% 30.38 in 10.0 mi North 12.7 mph - N/A   Clear
6:56 AM 28.9 °F 19.8 °F 7.0 °F 40% 30.43 in 10.0 mi North 10.4 mph 18.4 mph N/A   Clear
7:56 AM 30.0 °F 20.5 °F 7.0 °F 38% 30.45 in 10.0 mi North 11.5 mph - N/A   Clear
8:56 AM 33.1 °F 23.0 °F 7.0 °F 34% 30.47 in 10.0 mi North 15.0 mph - N/A   Clear
9:56 AM 35.1 °F 26.9 °F -4.0 °F 19% 30.46 in 10.0 mi ENE 11.5 mph 21.9 mph N/A   Clear
10:56 AM 37.0 °F 29.8 °F -7.1 °F 15% 30.47 in 10.0 mi NNE 10.4 mph 24.2 mph N/A   Clear
11:56 AM 37.9 °F 30.0 °F -7.1 °F 15% 30.45 in 10.0 mi NE 12.7 mph 19.6 mph N/A   Clear
12:56 PM 39.0 °F 32.3 °F -9.9 °F 12% 30.44 in 10.0 mi NE 10.4 mph 20.7 mph N/A   Clear
1:56 PM 39.0 °F 30.3 °F -13.0 °F 11% 30.43 in 10.0 mi NE 16.1 mph 24.2 mph N/A   Clear
2:56 PM 39.0 °F 31.0 °F -15.0 °F 10% 30.43 in 10.0 mi NE 13.8 mph - N/A   Clear
4:56 PM 35.1 °F 30.1 °F -13.0 °F 12% 30.45 in 10.0 mi NE 5.8 mph - N/A   Clear
5:56 PM 32.0 °F 27.5 °F -11.0 °F 15% 30.46 in 10.0 mi North 4.6 mph - N/A   Clear
6:56 PM 30.0 °F 22.4 °F 5.0 °F 35% 30.48 in 10.0 mi North 8.1 mph - N/A   Clear
7:56 PM 28.9 °F 21.9 °F 8.1 °F 41% 30.48 in 10.0 mi North 6.9 mph - N/A   Clear
8:56 PM 28.0 °F 19.3 °F 8.1 °F 43% 30.48 in 10.0 mi North 9.2 mph - N/A   Clear
9:56 PM 28.0 °F 19.3 °F 8.1 °F 43% 30.46 in 10.0 mi North 9.2 mph - N/A   Clear
10:56 PM 28.0 °F 21.7 °F 3.0 °F 34% 30.45 in 10.0 mi NE 5.8 mph - N/A   Clear
11:56 PM 27.0 °F 19.5 °F 1.0 °F 33% 30.46 in 10.0 mi NNE 6.9 mph - N/A   Clear